Time,TemperatureF,DewpointF,PressureIn,WindDirection,WindDirectionDegrees,WindSpeedMPH,WindSpeedGustMPH,Humidity,HourlyPrecipIn,Conditions,Clouds,dailyrainin,SolarRadiationWatts/m^2,SoftwareType,DateUTC
2013-02-28 00:01:00,28.0,24.0,-100.00,North,4,9.0,17.0,84,0.00,,,0.00,0.000000,,2013-02-28 06:01:00,
2013-02-28 00:10:00,28.0,22.0,-100.00,North,3,9.0,18.0,78,0.00,,,0.00,0.000000,,2013-02-28 06:10:00,
2013-02-28 00:32:00,28.0,22.0,-100.00,North,3,9.0,18.0,78,0.00,,,0.00,0.000000,,2013-02-28 06:32:00,
2013-02-28 00:42:00,28.0,22.0,-100.00,North,3,9.0,18.0,78,0.00,,,0.00,0.000000,,2013-02-28 06:42:00,
2013-02-28 00:52:00,28.0,22.0,-100.00,North,3,9.0,18.0,78,0.00,,,0.00,0.000000,,2013-02-28 06:52:00,
2013-02-28 01:01:00,28.0,22.0,-100.00,North,3,9.0,18.0,78,0.00,,,0.00,0.000000,,2013-02-28 07:01:00,
2013-02-28 01:10:00,27.0,23.0,-100.00,North,3,10.0,21.0,83,0.00,,,0.00,0.000000,,2013-02-28 07:10:00,
2013-02-28 01:32:00,27.0,23.0,-100.00,North,3,10.0,21.0,83,0.00,,,0.00,0.000000,,2013-02-28 07:32:00,
2013-02-28 01:42:00,27.0,23.0,-100.00,North,3,10.0,21.0,83,0.00,,,0.00,0.000000,,2013-02-28 07:42:00,
2013-02-28 01:52:00,27.0,23.0,-100.00,North,3,10.0,21.0,83,0.00,,,0.00,0.000000,,2013-02-28 07:52:00,
2013-02-28 02:01:00,27.0,23.0,-100.00,North,3,10.0,21.0,83,0.00,,,0.00,0.000000,,2013-02-28 08:01:00,
2013-02-28 02:10:00,26.0,23.0,-100.00,North,1,10.0,21.0,87,0.00,,,0.00,0.000000,,2013-02-28 08:10:00,
2013-02-28 02:42:00,26.0,23.0,-100.00,North,1,10.0,21.0,87,0.00,,,0.00,0.000000,,2013-02-28 08:42:00,
2013-02-28 02:53:00,26.0,23.0,-100.00,North,1,10.0,21.0,87,0.00,,,0.00,0.000000,,2013-02-28 08:53:00,
2013-02-28 03:03:00,26.0,23.0,-100.00,North,1,10.0,21.0,87,0.00,,,0.00,0.000000,,2013-02-28 09:03:00,
2013-02-28 03:10:00,26.0,23.0,-100.00,North,9,9.0,19.0,89,0.00,,,0.00,0.000000,,2013-02-28 09:10:00,
2013-02-28 03:42:00,26.0,23.0,-100.00,North,9,9.0,19.0,89,0.00,,,0.00,0.000000,,2013-02-28 09:42:00,
2013-02-28 03:52:00,26.0,23.0,-100.00,North,9,9.0,19.0,89,0.00,,,0.00,0.000000,,2013-02-28 09:52:00,
2013-02-28 04:02:00,26.0,23.0,-100.00,North,9,9.0,19.0,89,0.00,,,0.00,0.000000,,2013-02-28 10:02:00,
2013-02-28 04:10:00,26.0,22.0,-100.00,North,3,9.0,17.0,85,0.00,,,0.00,0.000000,,2013-02-28 10:10:00,
2013-02-28 04:32:00,26.0,22.0,-100.00,North,3,9.0,17.0,85,0.00,,,0.00,0.000000,,2013-02-28 10:32:00,
2013-02-28 04:42:00,26.0,22.0,-100.00,North,3,9.0,17.0,85,0.00,,,0.00,0.000000,,2013-02-28 10:42:00,
2013-02-28 04:52:00,26.0,22.0,-100.00,North,3,9.0,17.0,85,0.00,,,0.00,0.000000,,2013-02-28 10:52:00,
2013-02-28 05:01:00,26.0,22.0,-100.00,North,3,9.0,17.0,85,0.00,,,0.00,0.000000,,2013-02-28 11:01:00,
2013-02-28 05:10:00,25.0,22.0,-100.00,North,2,9.0,18.0,89,0.00,,,-99.99,0.000000,,2013-02-28 11:10:00,
2013-02-28 05:32:00,25.0,22.0,-100.00,North,2,9.0,18.0,89,0.00,,,-99.99,0.000000,,2013-02-28 11:32:00,
2013-02-28 05:42:00,25.0,22.0,-100.00,North,2,9.0,18.0,89,0.00,,,-99.99,0.000000,,2013-02-28 11:42:00,
2013-02-28 05:52:00,25.0,22.0,-100.00,North,2,9.0,18.0,89,0.00,,,-99.99,0.000000,,2013-02-28 11:52:00,
2013-02-28 06:02:00,25.0,22.0,-100.00,North,2,9.0,18.0,89,0.00,,,-99.99,0.000000,,2013-02-28 12:02:00,
2013-02-28 06:10:00,25.0,21.0,-100.00,North,2,9.0,18.0,83,0.00,,,0.00,0.000000,,2013-02-28 12:10:00,
2013-02-28 06:32:00,25.0,21.0,-100.00,North,2,9.0,18.0,83,0.00,,,0.00,0.000000,,2013-02-28 12:32:00,
2013-02-28 06:42:00,25.0,21.0,-100.00,North,2,9.0,18.0,83,0.00,,,0.00,0.000000,,2013-02-28 12:42:00,
2013-02-28 06:52:00,25.0,21.0,-100.00,North,2,9.0,18.0,83,0.00,,,0.00,0.000000,,2013-02-28 12:52:00,
2013-02-28 07:02:00,25.0,21.0,-100.00,North,2,9.0,18.0,83,0.00,,,0.00,0.000000,,2013-02-28 13:02:00,
2013-02-28 07:10:00,24.0,20.0,-100.00,North,8,11.0,24.0,83,0.00,,,0.00,1.000000,,2013-02-28 13:10:00,
2013-02-28 07:32:00,24.0,20.0,-100.00,North,8,11.0,24.0,83,0.00,,,0.00,1.000000,,2013-02-28 13:32:00,
2013-02-28 07:42:00,24.0,20.0,-100.00,North,8,11.0,24.0,83,0.00,,,0.00,1.000000,,2013-02-28 13:42:00,
2013-02-28 07:52:00,24.0,20.0,-100.00,North,8,11.0,24.0,83,0.00,,,0.00,1.000000,,2013-02-28 13:52:00,
2013-02-28 08:01:00,24.0,20.0,-100.00,North,8,11.0,24.0,83,0.00,,,0.00,1.000000,,2013-02-28 14:01:00,
2013-02-28 08:10:00,24.0,20.0,-100.00,North,1,10.0,22.0,83,0.00,,,0.00,13.000000,,2013-02-28 14:10:00,
2013-02-28 08:32:00,24.0,20.0,-100.00,North,1,10.0,22.0,83,0.00,,,0.00,13.000000,,2013-02-28 14:32:00,
2013-02-28 08:42:00,24.0,20.0,-100.00,North,1,10.0,22.0,83,0.00,,,0.00,13.000000,,2013-02-28 14:42:00,
2013-02-28 08:52:00,24.0,20.0,-100.00,North,1,10.0,22.0,83,0.00,,,0.00,13.000000,,2013-02-28 14:52:00,
2013-02-28 09:02:00,24.0,20.0,-100.00,North,1,10.0,22.0,83,0.00,,,0.00,13.000000,,2013-02-28 15:02:00,
2013-02-28 09:10:00,24.0,19.0,-100.00,North,3,8.0,18.0,82,0.00,,,0.00,47.000000,,2013-02-28 15:10:00,
2013-02-28 09:32:00,24.0,19.0,-100.00,North,3,8.0,18.0,82,0.00,,,0.00,47.000000,,2013-02-28 15:32:00,
2013-02-28 09:42:00,24.0,19.0,-100.00,North,3,8.0,18.0,82,0.00,,,0.00,47.000000,,2013-02-28 15:42:00,
2013-02-28 09:52:00,24.0,19.0,-100.00,North,3,8.0,18.0,82,0.00,,,0.00,47.000000,,2013-02-28 15:52:00,
2013-02-28 10:02:00,24.0,19.0,-100.00,North,3,8.0,18.0,82,0.00,,,0.00,47.000000,,2013-02-28 16:02:00,
2013-02-28 10:10:00,25.0,19.0,-100.00,North,1,8.0,20.0,76,0.00,,,0.00,89.000000,,2013-02-28 16:10:00,
2013-02-28 10:32:00,25.0,19.0,-100.00,North,1,8.0,20.0,76,0.00,,,0.00,89.000000,,2013-02-28 16:32:00,
2013-02-28 10:43:00,25.0,19.0,-100.00,North,1,8.0,20.0,76,0.00,,,0.00,89.000000,,2013-02-28 16:43:00,
2013-02-28 10:52:00,25.0,19.0,-100.00,North,1,8.0,20.0,76,0.00,,,0.00,89.000000,,2013-02-28 16:52:00,
2013-02-28 11:02:00,25.0,19.0,-100.00,North,1,8.0,20.0,76,0.00,,,0.00,89.000000,,2013-02-28 17:02:00,
2013-02-28 11:10:00,26.0,17.0,-100.00,North,5,6.0,15.0,68,0.00,,,0.00,154.000000,,2013-02-28 17:10:00,
2013-02-28 11:42:00,26.0,17.0,-100.00,North,5,6.0,15.0,68,0.00,,,0.00,154.000000,,2013-02-28 17:42:00,
2013-02-28 11:53:00,26.0,17.0,-100.00,North,5,6.0,15.0,68,0.00,,,0.00,154.000000,,2013-02-28 17:53:00,
2013-02-28 12:02:00,26.0,17.0,-100.00,North,5,6.0,15.0,68,0.00,,,0.00,154.000000,,2013-02-28 18:02:00,
2013-02-28 12:10:00,26.0,16.0,-100.00,North,6,9.0,16.0,66,0.00,,,0.00,205.000000,,2013-02-28 18:10:00,
2013-02-28 12:42:00,26.0,16.0,-100.00,North,6,9.0,16.0,66,0.00,,,0.00,205.000000,,2013-02-28 18:42:00,
2013-02-28 12:52:00,26.0,16.0,-100.00,North,6,9.0,16.0,66,0.00,,,0.00,205.000000,,2013-02-28 18:52:00,
2013-02-28 13:02:00,26.0,16.0,-100.00,North,6,9.0,16.0,66,0.00,,,0.00,205.000000,,2013-02-28 19:02:00,
2013-02-28 13:10:00,27.0,15.0,-100.00,NNE,13,8.0,20.0,60,0.00,,,0.00,271.000000,,2013-02-28 19:10:00,
2013-02-28 13:42:00,27.0,15.0,-100.00,NNE,13,8.0,20.0,60,0.00,,,0.00,271.000000,,2013-02-28 19:42:00,
2013-02-28 13:52:00,27.0,15.0,-100.00,NNE,13,8.0,20.0,60,0.00,,,0.00,271.000000,,2013-02-28 19:52:00,
2013-02-28 14:01:00,27.0,15.0,-100.00,NNE,13,8.0,20.0,60,0.00,,,0.00,271.000000,,2013-02-28 20:01:00,
2013-02-28 14:10:00,25.0,17.0,-100.00,North,2,7.0,17.0,71,0.00,,,0.00,168.000000,,2013-02-28 20:10:00,
2013-02-28 14:42:00,25.0,17.0,-100.00,North,2,7.0,17.0,71,0.00,,,0.00,168.000000,,2013-02-28 20:42:00,
2013-02-28 14:52:00,25.0,17.0,-100.00,North,2,7.0,17.0,71,0.00,,,0.00,168.000000,,2013-02-28 20:52:00,
2013-02-28 15:02:00,25.0,17.0,-100.00,North,2,7.0,17.0,71,0.00,,,0.00,168.000000,,2013-02-28 21:02:00,
2013-02-28 15:10:00,25.0,14.0,-100.00,North,1,11.0,18.0,63,0.00,,,0.00,188.000000,,2013-02-28 21:10:00,
2013-02-28 15:32:00,25.0,14.0,-100.00,North,1,11.0,18.0,63,0.00,,,0.00,188.000000,,2013-02-28 21:32:00,
2013-02-28 15:42:00,25.0,14.0,-100.00,North,1,11.0,18.0,63,0.00,,,0.00,188.000000,,2013-02-28 21:42:00,
2013-02-28 15:52:00,25.0,14.0,-100.00,North,1,11.0,18.0,63,0.00,,,0.00,188.000000,,2013-02-28 21:52:00,
2013-02-28 16:01:00,25.0,14.0,-100.00,North,1,11.0,18.0,63,0.00,,,0.00,188.000000,,2013-02-28 22:01:00,
2013-02-28 16:10:00,24.0,14.0,-100.00,North,358,11.0,19.0,64,0.00,,,0.00,127.000000,,2013-02-28 22:10:00,
2013-02-28 16:42:00,24.0,14.0,-100.00,North,358,11.0,19.0,64,0.00,,,0.00,127.000000,,2013-02-28 22:42:00,
2013-02-28 16:52:00,24.0,14.0,-100.00,North,358,11.0,19.0,64,0.00,,,0.00,127.000000,,2013-02-28 22:52:00,
2013-02-28 17:01:00,24.0,14.0,-100.00,North,358,11.0,19.0,64,0.00,,,0.00,127.000000,,2013-02-28 23:01:00,
2013-02-28 17:10:00,22.0,14.0,-100.00,North,7,9.0,15.0,71,0.00,,,0.00,50.000000,,2013-02-28 23:10:00,
2013-02-28 17:32:00,22.0,14.0,-100.00,North,7,9.0,15.0,71,0.00,,,0.00,50.000000,,2013-02-28 23:32:00,
2013-02-28 17:42:00,22.0,14.0,-100.00,North,7,9.0,15.0,71,0.00,,,0.00,50.000000,,2013-02-28 23:42:00,
2013-02-28 17:53:00,22.0,14.0,-100.00,North,7,9.0,15.0,71,0.00,,,0.00,50.000000,,2013-02-28 23:53:00,
2013-02-28 18:01:00,22.0,14.0,-100.00,North,7,9.0,15.0,71,0.00,,,0.00,50.000000,,2013-03-01 00:01:00,
2013-02-28 18:10:00,20.0,12.0,-100.00,North,1,7.0,17.0,71,0.00,,,0.00,5.000000,,2013-03-01 00:10:00,
2013-02-28 18:32:00,20.0,12.0,-100.00,North,1,7.0,17.0,71,0.00,,,0.00,5.000000,,2013-03-01 00:32:00,
2013-02-28 18:42:00,20.0,12.0,-100.00,North,1,7.0,17.0,71,0.00,,,0.00,5.000000,,2013-03-01 00:42:00,
2013-02-28 18:52:00,20.0,12.0,-100.00,North,1,7.0,17.0,71,0.00,,,0.00,5.000000,,2013-03-01 00:52:00,
2013-02-28 19:01:00,20.0,12.0,-100.00,North,1,7.0,17.0,71,0.00,,,0.00,5.000000,,2013-03-01 01:01:00,
2013-02-28 19:10:00,20.0,12.0,-100.00,North,2,7.0,16.0,72,0.00,,,0.00,0.000000,,2013-03-01 01:10:00,
2013-02-28 19:32:00,20.0,12.0,-100.00,North,2,7.0,16.0,72,0.00,,,0.00,0.000000,,2013-03-01 01:32:00,
2013-02-28 19:42:00,20.0,12.0,-100.00,North,2,7.0,16.0,72,0.00,,,0.00,0.000000,,2013-03-01 01:42:00,
2013-02-28 19:52:00,20.0,12.0,-100.00,North,2,7.0,16.0,72,0.00,,,0.00,0.000000,,2013-03-01 01:52:00,
2013-02-28 20:01:00,20.0,12.0,-100.00,North,2,7.0,16.0,72,0.00,,,0.00,0.000000,,2013-03-01 02:01:00,
2013-02-28 20:10:00,19.0,11.0,-100.00,North,11,7.0,14.0,71,0.00,,,0.00,0.000000,,2013-03-01 02:10:00,
2013-02-28 20:32:00,19.0,11.0,-100.00,North,11,7.0,14.0,71,0.00,,,0.00,0.000000,,2013-03-01 02:32:00,
2013-02-28 20:42:00,19.0,11.0,-100.00,North,11,7.0,14.0,71,0.00,,,0.00,0.000000,,2013-03-01 02:42:00,
2013-02-28 20:52:00,19.0,11.0,-100.00,North,11,7.0,14.0,71,0.00,,,0.00,0.000000,,2013-03-01 02:52:00,
2013-02-28 21:02:00,19.0,11.0,-100.00,North,11,7.0,14.0,71,0.00,,,0.00,0.000000,,2013-03-01 03:02:00,
2013-02-28 21:10:00,18.0,11.0,-100.00,North,7,6.0,16.0,73,0.00,,,0.00,0.000000,,2013-03-01 03:10:00,
2013-02-28 21:32:00,18.0,11.0,-100.00,North,7,6.0,16.0,73,0.00,,,0.00,0.000000,,2013-03-01 03:32:00,
2013-02-28 21:42:00,18.0,11.0,-100.00,North,7,6.0,16.0,73,0.00,,,0.00,0.000000,,2013-03-01 03:42:00,
2013-02-28 21:52:00,18.0,11.0,-100.00,North,7,6.0,16.0,73,0.00,,,0.00,0.000000,,2013-03-01 03:52:00,
2013-02-28 22:01:00,18.0,11.0,-100.00,North,7,6.0,16.0,73,0.00,,,0.00,0.000000,,2013-03-01 04:01:00,
2013-02-28 22:10:00,18.0,11.0,-100.00,North,11,6.0,12.0,74,0.00,,,0.00,0.000000,,2013-03-01 04:10:00,
2013-02-28 22:42:00,18.0,11.0,-100.00,North,11,6.0,12.0,74,0.00,,,0.00,0.000000,,2013-03-01 04:42:00,
2013-02-28 22:52:00,18.0,11.0,-100.00,North,11,6.0,12.0,74,0.00,,,0.00,0.000000,,2013-03-01 04:52:00,
2013-02-28 23:02:00,18.0,11.0,-100.00,North,11,6.0,12.0,74,0.00,,,0.00,0.000000,,2013-03-01 05:02:00,
2013-02-28 23:10:00,19.0,11.0,-100.00,North,5,6.0,13.0,72,0.00,,,0.00,0.000000,,2013-03-01 05:10:00,
2013-02-28 23:33:00,19.0,11.0,-100.00,North,5,6.0,13.0,72,0.00,,,0.00,0.000000,,2013-03-01 05:33:00,
2013-02-28 23:42:00,19.0,11.0,-100.00,North,5,6.0,13.0,72,0.00,,,0.00,0.000000,,2013-03-01 05:42:00,
2013-02-28 23:53:00,19.0,11.0,-100.00,North,5,6.0,13.0,72,0.00,,,0.00,0.000000,,2013-03-01 05:53:00,